Regional Weather Roundup
Issued by NWS Memphis, TN

Home | Current Version | Previous Version | Text Only | Print | Product List | Glossary On
Versions: 1 2 3 4 5 6 7 8 9 10 11 12 13 14 15 16 17 18 19 20 21 22 23 24 25 26 27 28 29 30 31 32 33 34 35 36 37 38 39 40 41 42 43 44 45 46 47 48 49 50
000
ASUS44 KMEG 212310
RWRMEG
MEMPHIS CWA HOURLY WEATHER ROUNDUP
NATIONAL WEATHER SERVICE MEMPHIS TN
600 PM CDT SAT OCT 21 2017

...WEST TENNESSEE...

CITY           SKY/WX    TMP DP  RH WIND       PRES   REMARKS
MEMPHIS INTL   PTCLDY    79  62  56 SE10      30.05R
NWS MEMPHIS      N/A     78 N/A N/A MISG        N/A
JACKSON        CLEAR     76  64  66 SE5       30.09F
COVINGTON      CLEAR     77  63  61 SE8       30.06S
SOMERVILLE     CLEAR     75  63  64 VRB5G13   30.07S
BOLIVAR        CLEAR     75  63  64 SE9       30.09S
LEXINGTON      CLEAR     75  63  64 VRB5G12   30.12S
SELMER         CLEAR     75  63  64 SE9       30.11S
SAVANNAH       CLEAR     75  61  60 S7        30.12F
DYERSBURG        N/A     76  63  64 SE10      30.07S
UNION CITY     CLEAR     77  61  57 SE13      30.07S
HUNTINGDON     PTCLDY    73  63  68 CALM      30.10S


...EASTERN ARKANSAS...

CITY           SKY/WX    TMP DP  RH WIND       PRES   REMARKS
JONESBORO      PTCLDY    80  65  59 SE14      30.01R
WEST MEMPHIS   CLEAR     77  63  61 SE10      30.03R
BATESVILLE     CLOUDY    74  69  85 CALM      30.00S
NEWPORT        MOCLDY    79  64  60 SE14      29.99S
WALNUT RIDGE   PTCLDY    80  63  55 S10       29.99S
BLYTHEVILLE    PTCLDY    77  62  59 SE12      30.05R
SEARCY         CLOUDY    80  68  66 S10       29.98S
STUTTGART      PTCLDY    82  66  58 SE14      29.98F
PINE BLUFF     MOCLDY    81  67  62 SE12      29.97F
MONTICELLO     CLOUDY    74  71  91 SE6       30.00S


...NORTH MISSISSIPPI...

CITY           SKY/WX    TMP DP  RH WIND       PRES   REMARKS
TUPELO         PTCLDY    76  61  59 E8        30.10F
OXFORD         PTCLDY    73  63  68 SE8G15    30.09S
BATESVILLE     CLEAR     77  63  61 E6        30.07R
OLIVE BRANCH   PTCLDY   N/A N/A N/A SE9G18    30.04S
TUNICA           N/A    N/A N/A N/A SE9       30.04R
CLARKSDALE       N/A     81  64  57 SE10      30.03R
CORINTH        PTCLDY    73  63  68 SE7       30.11F
GREENWOOD      MOCLDY    80  68  66 SE10      30.04R
COLUMBUS       CLOUDY    75  65  70 SE7       30.11R
STARKVILLE     CLOUDY    73  63  68 SE5       30.12R
GOLDEN TRIANGL CLOUDY    77  63  61 SE10      30.12R


...SOUTHEAST MISSOURI...

CITY           SKY/WX    TMP DP  RH WIND       PRES   REMARKS
KENNETT        PTCLDY    79  61  53 S13G18    30.02R
MALDEN         CLEAR     81  59  47 S13G20    30.04S
WEST PLAINS    MOCLDY    74  65  73 S12G20    30.01S
POPLAR BLUFF   LGT RAIN  79  61  53 SE13      30.01S
CAPE GIRARDEAU PTCLDY    77  58  51 SE13      30.04S


...NORTHWEST ALABAMA...

CITY           SKY/WX    TMP DP  RH WIND       PRES   REMARKS
MUSCLE SHOALS  CLOUDY    73  61  65 SE6       30.16S


...MIDDLE TENNESSEE...

CITY           SKY/WX    TMP DP  RH WIND       PRES   REMARKS
NASHVILLE      MOCLDY    73  56  54 SE7       30.17S
CLARKSVILLE    PTCLDY    73  59  61 SE7       30.13F
COLUMBIA       CLEAR     72  59  64 SE3       30.15F


...WESTERN KENTUCKY...

CITY           SKY/WX    TMP DP  RH WIND       PRES   REMARKS
PADUCAH        PTCLDY    76  57  51 SE9       30.07S
FORT CAMPBELL  CLEAR     77  52  41 S3        30.16S


...CENTRAL ARKANSAS...

CITY           SKY/WX    TMP DP  RH WIND       PRES   REMARKS
LITTLE ROCK    MOCLDY    77  71  82 S5        29.97S


SKY/WX REPORTED AS FAIR MEANS FEW OR NO CLOUDS BELOW
12 THOUSAND FEET.





USA.gov is the U.S. government's official web portal to all federal, state and local government web resources and services.